Sedona, AZ

4:18 AM MST on October 22, 2017 (GMT -0700)
Sedona

Weather History for KSEZ - May, 2013

Change the Weather History Date:

Friday, May 3, 2013

  Actual Average Record
Temperature  
Mean Temperature 66 °F -  
Max Temperature 80 °F 80 °F 86 °F (2014)
Min Temperature 53 °F 46 °F 46 °F (2011)
Cooling Degree Days 2    
Growing Degree Days 16 (Base 50)    
Moisture  
Dew Point 14 °F    
Average Humidity 14    
Maximum Humidity 19    
Minimum Humidity 8    
Precipitation  
Precipitation 0.00 in - - ()
Sea Level Pressure  
Sea Level Pressure 30.11 in    
Wind  
Wind Speed 11 mph (SSE)    
Max Wind Speed 21 mph    
Max Gust Speed 30 mph    
Visibility 10 miles    
Events      
Averages and records for this station are not official NWS values.
T = Trace of Precipitation, MM = Missing Value Source: NWS Daily Summary

Daily Weather History Graph

Daily Weather History Graph

Search for Another Location

Airport or City:

Trip Planner

Search our weather history database for the weather conditions in past years. The results will help you decide how hot, cold, wet, or windy it might be!

Date:

Astronomy

May. 03, 2013 Rise Set
Actual Time 5:34 AM MST 7:14 PM MST
Civil Twilight 5:07 AM MST 7:41 PM MST
Nautical Twilight 4:34 AM MST 8:14 PM MST
Astronomical Twilight 3:59 AM MST 8:48 PM MST
Moon 1:45 AM MST (5/3) 1:26 PM MST (5/3)
Length of Visible Light 14h 34m
Length of Day
13h 40m
Waning Crescent, 36% of the Moon is Illuminated
May 3
Waning Crescent
May 9
New
May 17
First Quarter
May 24
Full
May 31
Last Quarter

Hourly Weather History & Observations

Time (MST) Temp. Dew Point Humidity Pressure Visibility Wind Dir Wind Speed Gust Speed Precip Events Conditions
12:15 AM 55.4 °F 8.6 °F 15% 30.28 in 10.0 mi NE 17.3 mph 26.5 mph N/A   Clear
12:35 AM 55.4 °F 8.6 °F 15% 30.28 in 10.0 mi NE 17.3 mph 24.2 mph N/A   Clear
12:55 AM 55.4 °F 8.6 °F 15% 30.27 in 10.0 mi ENE 16.1 mph 26.5 mph N/A   Clear
1:15 AM 55.4 °F 8.6 °F 15% 30.26 in 10.0 mi NE 20.7 mph 29.9 mph N/A   Clear
1:35 AM 55.4 °F 6.8 °F 14% 30.25 in 10.0 mi NE 18.4 mph 26.5 mph N/A   Clear
1:55 AM 55.4 °F 6.8 °F 14% 30.25 in 10.0 mi NE 16.1 mph 24.2 mph N/A   Clear
2:15 AM 55.4 °F 6.8 °F 14% 30.25 in 10.0 mi NE 15.0 mph 23.0 mph N/A   Clear
2:35 AM 55.4 °F 6.8 °F 14% 30.25 in 10.0 mi NE 15.0 mph 20.7 mph N/A   Clear
2:55 AM 53.6 °F 6.8 °F 15% 30.25 in 10.0 mi NE 13.8 mph 20.7 mph N/A   Clear
3:15 AM 53.6 °F 6.8 °F 15% 30.24 in 10.0 mi NE 13.8 mph 18.4 mph N/A   Clear
3:35 AM 53.6 °F 6.8 °F 15% 30.24 in 10.0 mi ENE 11.5 mph - N/A   Clear
3:55 AM 53.6 °F 6.8 °F 15% 30.24 in 10.0 mi ENE 11.5 mph - N/A   Clear
4:15 AM 53.6 °F 5.0 °F 14% 30.24 in 10.0 mi ENE 12.7 mph - N/A   Clear
4:35 AM 53.6 °F 5.0 °F 14% 30.24 in 10.0 mi ENE 13.8 mph - N/A   Clear
4:55 AM 53.6 °F 5.0 °F 14% 30.23 in 10.0 mi NE 12.7 mph - N/A   Clear
5:15 AM 53.6 °F 5.0 °F 14% 30.23 in 10.0 mi NE 12.7 mph 20.7 mph N/A   Clear
5:35 AM 53.6 °F 5.0 °F 14% 30.22 in 10.0 mi ENE 12.7 mph 19.6 mph N/A   Clear
5:55 AM 53.6 °F 5.0 °F 14% 30.22 in 10.0 mi ENE 13.8 mph 20.7 mph N/A   Clear
6:15 AM 55.4 °F 6.8 °F 14% 30.22 in 10.0 mi ENE 11.5 mph 16.1 mph N/A   Clear
6:55 AM 57.2 °F 8.6 °F 14% 30.23 in 10.0 mi ENE 5.8 mph - N/A   Clear
7:15 AM 59.0 °F 10.4 °F 15% 30.23 in 10.0 mi NE 4.6 mph - N/A   Clear
7:35 AM 60.8 °F 12.2 °F 15% 30.22 in 10.0 mi East 5.8 mph - N/A   Clear
7:55 AM 62.6 °F 12.2 °F 14% 30.22 in 10.0 mi Calm Calm - N/A   Clear
8:15 AM 62.6 °F 12.2 °F 14% 30.21 in 10.0 mi Calm Calm - N/A   Clear
8:35 AM 64.4 °F 14.0 °F 14% 30.21 in 10.0 mi South 5.8 mph - N/A   Clear
8:55 AM 62.6 °F 12.2 °F 14% 30.21 in 10.0 mi SSW 3.5 mph - N/A   Clear
9:15 AM 64.4 °F 12.2 °F 13% 30.20 in 10.0 mi South 6.9 mph - N/A   Clear
9:35 AM 68.0 °F 14.0 °F 12% 30.19 in 10.0 mi SSW 4.6 mph - N/A   Clear
9:55 AM 68.0 °F 14.0 °F 12% 30.18 in 10.0 mi South 4.6 mph - N/A   Clear
10:15 AM 68.0 °F 15.8 °F 13% 30.17 in 10.0 mi SSE 3.5 mph - N/A   Clear
10:55 AM 71.6 °F 17.6 °F 13% 30.16 in 10.0 mi SSE 4.6 mph - N/A   Clear
11:15 AM 73.4 °F 17.6 °F 12% 30.14 in 10.0 mi West 3.5 mph - N/A   Clear
11:35 AM 75.2 °F 19.4 °F 12% 30.13 in 10.0 mi SSW 10.4 mph - N/A   Clear
11:55 AM 75.2 °F 17.6 °F 11% 30.13 in 10.0 mi SSW 3.5 mph - N/A   Clear
12:15 PM 73.4 °F 17.6 °F 12% 30.12 in 10.0 mi West 4.6 mph - N/A   Clear
12:35 PM 73.4 °F 17.6 °F 12% 30.11 in 10.0 mi West 6.9 mph - N/A   Clear
12:55 PM 75.2 °F 17.6 °F 11% 30.10 in 10.0 mi West 8.1 mph - N/A   Clear
1:15 PM 77.0 °F 17.6 °F 11% 30.09 in 10.0 mi South 5.8 mph - N/A   Clear
1:35 PM 75.2 °F 19.4 °F 12% 30.08 in 10.0 mi West 10.4 mph - N/A   Clear
1:55 PM 77.0 °F 19.4 °F 12% 30.06 in 10.0 mi South 6.9 mph - N/A   Clear
2:15 PM 80.6 °F 21.2 °F 11% 30.05 in 10.0 mi SSE 6.9 mph - N/A   Clear
2:35 PM 80.6 °F 21.2 °F 11% 30.04 in 10.0 mi SW 5.8 mph - N/A   Clear
2:55 PM 80.6 °F 19.4 °F 10% 30.02 in 10.0 mi ESE 3.5 mph - N/A   Clear
3:15 PM 80.6 °F 19.4 °F 10% 30.01 in 10.0 mi ESE 4.6 mph - N/A   Clear
3:35 PM 80.6 °F 15.8 °F 9% 30.01 in 10.0 mi SSW 8.1 mph - N/A   Clear
3:55 PM 80.6 °F 12.2 °F 8% 30.00 in 10.0 mi WSW 11.5 mph - N/A   Clear
4:15 PM 78.8 °F 14.0 °F 9% 30.00 in 10.0 mi WNW 4.6 mph - N/A   Clear
4:35 PM 78.8 °F 14.0 °F 9% 29.99 in 10.0 mi Calm Calm - N/A   Clear
4:55 PM 78.8 °F 14.0 °F 9% 29.99 in 10.0 mi Calm Calm - N/A   Clear
5:15 PM 78.8 °F 14.0 °F 9% 29.98 in 10.0 mi SSW 8.1 mph - N/A   Clear
5:35 PM 78.8 °F 14.0 °F 9% 29.97 in 10.0 mi SSW 6.9 mph - N/A   Clear
5:55 PM 77.0 °F 17.6 °F 11% 29.97 in 10.0 mi South 8.1 mph - N/A   Clear
6:15 PM 77.0 °F 17.6 °F 11% 29.97 in 10.0 mi South 9.2 mph - N/A   Clear
6:35 PM 75.2 °F 19.4 °F 12% 29.97 in 10.0 mi South 11.5 mph - N/A   Clear
6:55 PM 73.4 °F 19.4 °F 13% 29.97 in 10.0 mi South 15.0 mph 21.9 mph N/A   Clear
7:15 PM 71.6 °F 19.4 °F 14% 29.98 in 10.0 mi SSW 9.2 mph 16.1 mph N/A   Clear
7:35 PM 69.8 °F 19.4 °F 15% 29.99 in 10.0 mi SSW 6.9 mph - N/A   Clear
7:55 PM 69.8 °F 19.4 °F 15% 30.00 in 10.0 mi SSW 6.9 mph - N/A   Clear
8:15 PM 68.0 °F 19.4 °F 16% 30.00 in 10.0 mi South 6.9 mph - N/A   Clear
8:35 PM 68.0 °F 19.4 °F 16% 30.00 in 10.0 mi South 5.8 mph - N/A   Clear
8:55 PM 66.2 °F 19.4 °F 17% 30.01 in 10.0 mi South 8.1 mph - N/A   Clear
9:15 PM 66.2 °F 19.4 °F 17% 30.02 in 10.0 mi SSE 8.1 mph - N/A   Clear
9:35 PM 64.4 °F 19.4 °F 18% 30.02 in 10.0 mi South 8.1 mph - N/A   Clear
9:55 PM 64.4 °F 19.4 °F 18% 30.02 in 10.0 mi SSW 3.5 mph - N/A   Clear
10:15 PM 64.4 °F 19.4 °F 18% 30.01 in 10.0 mi Calm Calm - N/A   Clear
10:35 PM 64.4 °F 17.6 °F 16% 30.00 in 10.0 mi SSE 3.5 mph - N/A   Clear
10:55 PM 64.4 °F 19.4 °F 18% 30.00 in 10.0 mi Calm Calm - N/A   Clear
11:15 PM 62.6 °F 19.4 °F 19% 30.00 in 10.0 mi Calm Calm - N/A   Clear
11:35 PM 62.6 °F 19.4 °F 19% 30.00 in 10.0 mi Calm Calm - N/A   Clear
11:55 PM 62.6 °F 19.4 °F 19% 29.99 in 10.0 mi Calm Calm - N/A   Clear